Location: Ch�risy
(50.2331°N, 2.9131°E)
Time: 02:26:15
(UTC+00:00)

CZ-4B R/B - Pass Details

Date: 17 January 2021
Orbit: 387 x 458 km, 97.6° (Epoch: 28 February)

Event Time Altitude Azimuth Distance (km) Brightness Sun altitude
Exits shadow 18:46:31 12° 346° (NNW) 1,458 4.1 -23.2°
Maximum altitude 18:48:59 25° 294° (WNW) 946 3.6 -23.6°
Drops below altitude 10° 18:51:49 10° 237° (WSW) 1,572 4.9 -24.1°
Sets 18:54:02 0° 224° (SW) 2,425 5.8 -24.4°
